TimeCST,TemperatureF,Dew PointF,Humidity,Sea Level PressureIn,VisibilityMPH,Wind Direction,Wind SpeedMPH,Gust SpeedMPH,PrecipitationIn,Events,Conditions,WindDirDegrees,DateUTC
12:01 AM,28.4,21.2,74,30.16,10.0,ENE,5.8,-,N/A,,Mostly Cloudy,60,2012-12-09 06:01:00
12:22 AM,26.6,19.4,74,30.16,10.0,ENE,6.9,-,N/A,,Scattered Clouds,60,2012-12-09 06:22:00
12:53 AM,26.1,19.9,78,30.18,10.0,NE,6.9,-,N/A,,Clear,50,2012-12-09 06:53:00
1:53 AM,28.9,21.0,72,30.17,10.0,ENE,5.8,-,N/A,,Scattered Clouds,70,2012-12-09 07:53:00
2:53 AM,30.0,24.1,79,30.18,10.0,NE,6.9,-,N/A,,Overcast,50,2012-12-09 08:53:00
3:53 AM,30.9,25.0,79,30.17,10.0,ENE,4.6,-,N/A,,Overcast,60,2012-12-09 09:53:00
4:53 AM,33.1,26.1,75,30.14,10.0,East,6.9,-,N/A,,Overcast,100,2012-12-09 10:53:00
5:53 AM,34.0,25.0,70,30.13,10.0,East,8.1,-,N/A,,Overcast,80,2012-12-09 11:53:00
6:48 AM,33.8,24.8,70,30.12,10.0,East,6.9,-,N/A,,Overcast,90,2012-12-09 12:48:00
6:53 AM,34.0,25.0,70,30.15,10.0,East,8.1,-,N/A,,Overcast,90,2012-12-09 12:53:00
7:44 AM,33.8,24.8,70,30.09,10.0,ENE,10.4,18.4,N/A,,Overcast,70,2012-12-09 13:44:00
7:53 AM,34.0,24.1,67,30.13,10.0,ENE,9.2,-,N/A,,Overcast,70,2012-12-09 13:53:00
8:53 AM,34.0,24.1,67,30.12,10.0,East,11.5,-,N/A,,Overcast,80,2012-12-09 14:53:00
9:12 AM,33.8,24.8,70,30.07,10.0,East,10.4,-,N/A,,Overcast,80,2012-12-09 15:12:00
9:53 AM,34.0,27.0,75,30.09,3.0,East,11.5,-,0.00,Snow,Light Snow,90,2012-12-09 15:53:00
10:11 AM,33.8,28.4,81,30.06,2.0,East,10.4,-,0.00,Snow,Light Snow,90,2012-12-09 16:11:00
10:15 AM,33.8,28.4,81,30.06,1.8,East,10.4,-,0.00,Snow,Light Snow,90,2012-12-09 16:15:00
10:53 AM,33.1,30.0,89,30.05,1.5,ENE,9.2,-,0.00,Snow,Light Snow,70,2012-12-09 16:53:00
11:02 AM,33.8,30.2,87,30.02,1.8,ENE,10.4,-,0.00,Snow,Light Snow,70,2012-12-09 17:02:00
11:43 AM,33.8,30.2,87,29.99,0.8,ENE,9.2,-,0.01,Snow,Light Snow,70,2012-12-09 17:43:00
11:53 AM,33.1,30.9,92,30.01,1.0,ENE,9.2,-,0.02,Snow,Light Snow,70,2012-12-09 17:53:00
12:14 PM,33.8,30.2,87,29.96,0.5,ENE,9.2,-,0.00,Fog-Snow,Snow,60,2012-12-09 18:14:00
12:29 PM,33.8,30.2,87,29.95,0.2,ENE,10.4,-,0.02,Fog-Snow,Snow,60,2012-12-09 18:29:00
12:36 PM,33.8,30.2,87,29.95,0.5,ENE,8.1,-,0.02,Fog-Snow,Snow,60,2012-12-09 18:36:00
12:43 PM,33.8,30.2,87,29.94,0.2,ENE,10.4,-,0.03,Fog-Snow,Snow,60,2012-12-09 18:43:00
12:53 PM,33.1,30.9,92,29.97,0.2,ENE,9.2,-,0.04,Fog-Snow,Snow,60,2012-12-09 18:53:00
1:53 PM,33.1,30.9,92,29.93,0.2,ENE,10.4,-,0.08,Fog-Snow,Snow,60,2012-12-09 19:53:00
2:19 PM,33.8,30.2,87,29.89,0.5,ENE,10.4,-,0.03,Fog-Snow,Snow,60,2012-12-09 20:19:00
2:53 PM,33.1,30.9,92,29.89,0.8,ENE,10.4,-,0.04,Snow,Light Snow,60,2012-12-09 20:53:00
3:33 PM,33.8,30.2,87,29.85,1.0,ENE,11.5,-,0.01,Snow,Light Snow,70,2012-12-09 21:33:00
3:53 PM,33.1,30.9,92,29.88,2.0,ENE,10.4,-,0.01,Snow,Light Snow,70,2012-12-09 21:53:00
4:00 PM,33.8,30.2,87,29.84,1.8,East,11.5,-,0.00,Snow,Light Snow,80,2012-12-09 22:00:00
4:40 PM,33.8,30.2,87,29.83,2.0,ENE,8.1,-,0.01,Snow,Light Snow,70,2012-12-09 22:40:00
4:53 PM,33.1,30.9,92,29.85,1.8,ENE,10.4,-,0.02,Snow,Light Snow,70,2012-12-09 22:53:00
5:53 PM,33.1,30.9,92,29.81,1.0,ENE,11.5,-,0.02,Snow,Light Snow,70,2012-12-09 23:53:00
6:53 PM,33.1,30.9,92,29.83,1.5,ENE,8.1,-,0.03,Snow,Light Snow,60,2012-12-10 00:53:00
7:53 PM,32.0,30.9,96,29.82,1.2,NE,10.4,-,0.03,Snow,Light Snow,50,2012-12-10 01:53:00
8:51 PM,32.0,30.2,93,29.77,2.0,NE,12.7,-,0.02,Snow,Light Snow,50,2012-12-10 02:51:00
8:53 PM,32.0,30.0,92,29.79,2.0,NE,12.7,-,0.02,Snow,Light Snow,50,2012-12-10 02:53:00
9:05 PM,32.0,30.2,93,29.77,1.5,NE,13.8,-,0.00,Snow,Light Snow,40,2012-12-10 03:05:00
9:18 PM,32.0,30.2,93,29.75,2.0,NE,13.8,-,N/A,Snow,Light Snow,50,2012-12-10 03:18:00
9:26 PM,32.0,30.2,93,29.75,1.8,ENE,16.1,-,0.01,Snow,Light Snow,60,2012-12-10 03:26:00
9:35 PM,32.0,28.4,87,29.75,2.5,ENE,12.7,-,0.01,Snow,Light Snow,60,2012-12-10 03:35:00
9:44 PM,32.0,28.4,87,29.75,5.0,NE,12.7,-,0.01,Snow,Light Snow,50,2012-12-10 03:44:00
9:53 PM,32.0,28.9,88,29.77,7.0,NE,11.5,-,0.01,Snow,Light Snow,50,2012-12-10 03:53:00
10:53 PM,32.0,28.9,88,29.76,10.0,NE,9.2,-,0.00,,Overcast,40,2012-12-10 04:53:00
11:40 PM,32.0,28.4,87,29.72,4.0,NE,11.5,-,0.00,Snow,Light Snow,40,2012-12-10 05:40:00
11:53 PM,32.0,28.9,88,29.74,3.0,NE,12.7,-,0.01,Snow,Light Snow,40,2012-12-10 05:53:00